Weather in Krasnyy Oktyabr'

Russia / Vladimir Oblast     55°24′17″N   40°54′38″E
temp.,
°C
wind,
m/s
gust,
m/s
humid.,
%
clouds,
%
prec.,
mm/h
press.,
hPa
HPBL,
m
7 march, sun
sun700:00−13wsw239643 0.0 101327
03:00−14sw369522 0.0 1011116
06:00−12ssw4119235 0.0 1008280
09:00−7ssw7158168 0.0 1004935
12:00−6ssw71491100 1.3 9991110
15:00−4sw71393100 2.7 9951043
18:00−3ssw61295100 1.5 993880
21:00−3wnw4896100 4.0 991559
8 march, mon
mon800:00−9w229271 0.3 99229
03:00−8sw389685 0.6 995342
06:00−9wsw4119398 0.9 996443
09:00−9wsw499296 0.9 997442
12:00−6sw4790100 0.3 997768
15:00−5wnw4777100 1.4 9991105
18:00−8nw41088100 0.3 1001458
21:00−12nw399454 0.3 1005233
9 march, tue
tue900:00−14nw389730 0.0 1007155
03:00−17nw249854 0.0 100985
06:00−18nw259898 0.0 1011106
09:00−15nnw369595 0.1 1013276
12:00−13nw3590100 0.0 1014463
15:00−12nw4587100 0.1 1015619
18:00−16nw3894100 0.0 1016248
21:00−20nnw379866 0.0 1019150
10 march, wed
wed1000:00−22nnw369987 0.0 1020133
03:00−24nnw369985 0.0 1022131
06:00−27nnw359826 0.0 102398
09:00−24nnw359515 0.0 1025250
12:00−18nnw358722 0.0 1026475
15:00−15nnw358011 0.0 1026672
18:00−19nw23920 0.0 102624
21:00−23wnw22920 0.0 102820
11 march, thu
thu1100:00−23w23930 0.0 102822
03:00−23w23950 0.0 102930
06:00−23w23954 0.0 102941
09:00−18w24904 0.0 1029164
12:00−11sw24770 0.0 1028395
15:00−9ssw35770 0.0 1027540
18:00−12s37921 0.0 1026155
21:00−14s4109649 0.0 1026310